Volver al catálogo

STARLINK-11580

ActivoComunicacionesVLEO
NORAD 63011·PAYLOAD·🇺🇸 United States

Lanzado Feb 15, 2025 desde Cape Canaveral Space Force Station

Loading…

Próximos Pases (próximas 24 horas)

TLE

ActualizadoSource: CelesTrak SupGP

Época: Sep 15, 2026, 02:54 UTC

1 63011C 25032G   26258.12131944  .00110690  00000+0  85928-3 0  2580
2 63011  43.0002 133.2937 0001651 269.0185 280.5444 15.70794853    11

Sigue STARLINK-11580 en tiempo real con AllMySat

Download on the App Store